LMMLLICB

Guest
Details From LMML - La Valette Luqa
To LICB - Magliocco
Flight Number -
Tags generated
Created
Modified
Stats Distance 73 nm / 135 km
Max Altitude 7,000 ft / 2,134 m
Waypoints 3
Social Downloads 2
Likes 0
Share VATSIM

Download

Looking for another format? Having issues loading an existing format? Contact us
Advertisement - Login to hide

Notes

Basic altitude profile: - Ascent Rate: 2500ft/min - Ascent Speed: 250kts - Cruise Altitude: 35000ft - Cruise Speed: 420kts - Descent Rate: 1500ft/min - Descent Speed: 250kts Options: - Use NATs: yes - Use PACOTS: yes - Use low airways: yes - Use high airways: yes

Route

LMML DIRKA LICB

ID Type Via Altitude (ft/m) Position (lat/lon) Dist (leg/tot) Name
O LMML APT - 0 / 0 35.84948 / 14.48184 - / 0 nm La Valette Luqa
DIRKA FIX - 7,000 / 2,134 36.50000 / 14.31000 39 / 39 nm
O LICB APT - 0 / 0 36.99403 / 14.60627 32 / 72 nm Magliocco

Altitude Profile

Advertisement - Login to hide

LMML

Details ICAO LMML (MLA)
Name Malta Int'l
Region Malta
Timezone Europe/Malta (UTC+2.0)
Stats Elevation 299 ft / 91 m (AMSL)
Location 35.849500° 14.481800°
Runways 2
Magnetic Variation 3.155° E

METAR

LMML 192115Z 21003KT CAVOK 16/10 Q1012 NOSIG

Decode

TAF

TAF LMML 191700Z 1918/2018 32011KT 9999 FEW025 PROB30 2003/2008 8000 RA BECMG 2012/2015 02005KT

Decode

Departure Runways

ID Width Length Bearing (true/mag) Surface Threshold Overrun Markings Lighting
05 148 ft / 45 m 7,802 ft / 2,378 m 54.36° / 51.20° CONCRETE 0 ft / 0 m 82 ft / 25 m PREC-APP CENTERLINE EDGE THRESHOLD MALSF
13 197 ft / 60 m 11,633 ft / 3,546 m 134.85° / 131.69° CONCRETE 0 ft / 0 m 0 ft / 0 m PREC-APP CENTERLINE EDGE THRESHOLD MALSR REIL-OMNI
23 148 ft / 45 m 7,802 ft / 2,378 m 234.37° / 231.22° CONCRETE 0 ft / 0 m 102 ft / 31 m PREC-APP CENTERLINE EDGE THRESHOLD MALSF
31 197 ft / 60 m 11,633 ft / 3,546 m 314.87° / 311.71° CONCRETE 614 ft / 187 m 177 ft / 54 m PREC-APP CENTERLINE EDGE THRESHOLD ALSF-I REIL-OMNI

LICB

Details ICAO LICB (CIY)
Name Comiso
Region Italy
Timezone Europe/Rome (UTC+2.0)
Stats Elevation 755 ft / 230 m (AMSL)
Location 36.995100° 14.607800°
Runways 1
Magnetic Variation 3.251° E

METAR

LICB 192050Z VRB02KT CAVOK 14/11 Q1012

Decode

TAF

Not found

Destination Runways

ID Width Length Bearing (true/mag) Surface Threshold Overrun Markings Lighting
05 148 ft / 45 m 8,335 ft / 2,540 m 50.03° / 46.78° ASPHALT 0 ft / 0 m 0 ft / 0 m PREC-APP CENTERLINE EDGE THRESHOLD CALVERT REIL-OMNI
23 148 ft / 45 m 8,335 ft / 2,540 m 230.05° / 226.80° ASPHALT 0 ft / 0 m 0 ft / 0 m PREC-APP CENTERLINE EDGE THRESHOLD SALS REIL-OMNI

Approach Navaids

Runway Type Ident Frequency Range Bearing (true/mag) Slope Elevation
05 LOC-ILS ICMS 108.95 MHz 18 nm / 33 km 50.04° / 46.79 ° - 755 ft / 230 m (AMSL)
05 GS ICMS 108.95 MHz 10 nm / 19 km 50.04° / 46.79 ° 3.00° 755 ft / 230 m (AMSL)

Popular Alternatives